timestamp,surface_pressure_avg,surface_temp_avg,battery_voltage,lat,long
2019-03-22 00:00:00+00:00,380.3362,0.44,12.97,47.84626,-54.09684
2019-03-22 00:10:00+00:00,380.1713,0.42,12.89,47.84626,-54.09684
2019-03-22 00:20:00+00:00,374.6179,0.42,12.97,47.84626,-54.09684
2019-03-22 00:30:00+00:00,375.2979,0.4,12.97,47.84626,-54.09684
2019-03-22 00:40:00+00:00,376.8613,0.4,12.97,47.84626,-54.09684
2019-03-22 00:50:00+00:00,369.3063,0.4,12.97,47.84626,-54.09684
2019-03-22 01:00:00+00:00,358.6013,0.4,12.89,47.84626,-54.09684
2019-03-22 01:10:00+00:00,356.5863,0.44,12.81,47.84626,-54.09684
2019-03-22 01:20:00+00:00,358.5779,0.47,12.89,47.84626,-54.09684
2019-03-22 01:30:00+00:00,349.5563,0.51,12.89,47.84626,-54.09684
2019-03-22 01:40:00+00:00,334.558,0.59,12.97,47.84626,-54.09684
2019-03-22 01:50:00+00:00,329.6497,0.5,12.97,47.84626,-54.09684
2019-03-22 02:00:00+00:00,327.6429,0.5,12.89,47.84626,-54.09684
2019-03-22 02:10:00+00:00,318.1829,0.57,12.81,47.84626,-54.09684
2019-03-22 02:20:00+00:00,304.4948,0.58,12.89,47.84626,-54.09684
2019-03-22 02:30:00+00:00,297.218,0.6,12.89,47.84626,-54.09684
2019-03-22 02:40:00+00:00,291.8914,0.64,12.89,47.84626,-54.09684
2019-03-22 02:50:00+00:00,281.1964,0.65,12.97,47.84626,-54.09684
2019-03-22 03:00:00+00:00,272.3031,0.64,12.81,47.84626,-54.09684
2019-03-22 03:10:00+00:00,270.5847,0.63,12.81,47.84626,-54.09684
2019-03-22 03:20:00+00:00,262.9981,0.6,12.89,47.84626,-54.09684
2019-03-22 03:30:00+00:00,246.3264,0.6,12.89,47.84626,-54.09684
2019-03-22 03:40:00+00:00,234.3097,0.6,12.89,47.84626,-54.09684
2019-03-22 03:50:00+00:00,225.1781,0.6,12.89,47.84626,-54.09684
2019-03-22 04:00:00+00:00,211.9297,0.64,12.81,47.84626,-54.09684
2019-03-22 04:10:00+00:00,194.7998,0.66,12.73,47.84626,-54.09684
2019-03-22 04:20:00+00:00,184.7331,0.65,12.81,47.84626,-54.09684
2019-03-22 04:30:00+00:00,177.0465,0.6,12.81,47.84626,-54.09684
2019-03-22 04:40:00+00:00,166.5315,0.6,12.89,47.84626,-54.09684
2019-03-22 04:50:00+00:00,156.6315,0.6,12.89,47.84626,-54.09684
2019-03-22 05:00:00+00:00,148.7048,0.59,12.81,47.84626,-54.09684
2019-03-22 05:10:00+00:00,143.2949,0.57,12.73,47.84626,-54.09684
2019-03-22 05:20:00+00:00,139.1715,0.5,12.81,47.84626,-54.09684
2019-03-22 05:30:00+00:00,136.1749,0.5,12.81,47.84626,-54.09684
2019-03-22 05:40:00+00:00,133.3582,0.5,12.81,47.84626,-54.09684
2019-03-22 05:50:00+00:00,133.3332,0.5,12.89,47.84626,-54.09684
2019-03-22 06:00:00+00:00,133.2015,0.5,12.81,47.84626,-54.09684
2019-03-22 06:10:00+00:00,132.5082,0.5,12.73,47.84626,-54.09684
2019-03-22 06:20:00+00:00,134.9215,0.5,12.81,47.84626,-54.09684
2019-03-22 06:30:00+00:00,136.4882,0.5,12.81,47.84626,-54.09684
2019-03-22 06:40:00+00:00,137.5532,0.5,12.81,47.84626,-54.09684
2019-03-22 06:50:00+00:00,140.8932,0.5,12.81,47.84626,-54.09684
2019-03-22 07:00:00+00:00,147.2565,0.49,12.73,47.84626,-54.09684
2019-03-22 07:10:00+00:00,148.6332,0.48,12.65,47.84626,-54.09684
2019-03-22 07:20:00+00:00,152.5799,0.49,12.73,47.84626,-54.09684
2019-03-22 07:30:00+00:00,160.5932,0.49,12.81,47.84626,-54.09684
2019-03-22 07:40:00+00:00,161.8115,0.5,12.81,47.84626,-54.09684
2019-03-22 07:50:00+00:00,161.2848,0.5,12.81,47.84626,-54.09684
2019-03-22 08:00:00+00:00,168.4081,0.49,12.73,47.84626,-54.09684
2019-03-22 08:10:00+00:00,178.5915,0.4,12.65,47.84626,-54.09684
2019-03-22 08:20:00+00:00,179.1548,0.47,12.73,47.84626,-54.09684
2019-03-22 08:30:00+00:00,180.8431,0.49,12.73,47.84626,-54.09684
2019-03-22 08:40:00+00:00,187.7131,0.42,12.81,47.84626,-54.09684
2019-03-22 08:50:00+00:00,190.2748,0.48,12.81,47.84626,-54.09684
2019-03-22 09:00:00+00:00,192.4665,0.5,12.73,47.84626,-54.09684
2019-03-22 09:10:00+00:00,204.0198,0.47,12.65,47.84626,-54.09684
2019-03-22 09:20:00+00:00,213.3781,0.4,12.73,47.84626,-54.09684
2019-03-22 09:30:00+00:00,217.6981,0.4,12.73,47.84626,-54.09684
2019-03-22 09:40:00+00:00,227.6581,0.3,12.81,47.84626,-54.09684
2019-03-22 09:50:00+00:00,238.1764,0.3,12.81,47.84626,-54.09684
2019-03-22 10:00:00+00:00,243.683,0.3,12.73,47.84626,-54.09684
2019-03-22 10:10:00+00:00,248.883,0.34,12.65,47.84626,-54.09684
2019-03-22 10:20:00+00:00,260.348,0.3,12.73,47.84626,-54.09684
2019-03-22 10:30:00+00:00,270.218,0.2,12.81,47.84626,-54.09684
2019-03-22 10:40:00+00:00,273.7581,0.25,12.81,47.84626,-54.09684
2019-03-22 10:50:00+00:00,284.538,0.26,12.89,47.84626,-54.09684
2019-03-22 11:00:00+00:00,299.338,0.2,12.81,47.84626,-54.09684
2019-03-22 11:10:00+00:00,309.473,0.2,12.81,47.84626,-54.09684
2019-03-22 11:20:00+00:00,311.4698,0.25,12.97,47.84626,-54.09684
2019-03-22 11:30:00+00:00,320.0046,0.3,13.05,47.84626,-54.09684
2019-03-22 11:40:00+00:00,331.4496,0.22,13.37,47.84626,-54.09684
2019-03-22 11:50:00+00:00,335.2796,0.29,13.76,47.84626,-54.09684
2019-03-22 12:00:00+00:00,336.5363,0.24,14.56,47.84626,-54.09684
2019-03-22 12:10:00+00:00,343.838,0.2,14.48,47.84626,-54.09684
2019-03-22 12:20:00+00:00,353.9497,0.2,14.64,47.84626,-54.09684
2019-03-22 12:30:00+00:00,355.753,0.2,14.64,47.84626,-54.09684
2019-03-22 12:40:00+00:00,351.0513,0.2,15.44,47.84626,-54.09684
2019-03-22 12:50:00+00:00,353.468,0.19,16.55,47.84626,-54.09684
2019-03-22 13:00:00+00:00,361.0079,0.19,15.27,47.84626,-54.09684
2019-03-22 13:10:00+00:00,358.7097,0.19,14.88,47.84626,-54.09684
2019-03-22 13:20:00+00:00,352.3495,0.2,15.11,47.84626,-54.09684
2019-03-22 13:30:00+00:00,352.3229,0.2,15.11,47.84626,-54.09684
2019-03-22 13:40:00+00:00,352.2546,0.19,15.2,47.84626,-54.09684
2019-03-22 13:50:00+00:00,347.2847,0.2,15.11,47.84626,-54.09684
2019-03-22 14:00:00+00:00,342.6663,0.14,14.88,47.84626,-54.09684
2019-03-22 14:10:00+00:00,334.9413,0.1,14.88,47.84626,-54.09684
2019-03-22 14:20:00+00:00,328.1729,0.1,14.72,47.84626,-54.09684
2019-03-22 14:30:00+00:00,319.0729,0.1,14.72,47.84626,-54.09684
2019-03-22 14:40:00+00:00,313.413,0.55,14.72,47.84626,-54.09684
2019-03-22 14:50:00+00:00,307.8964,0.7,14.72,47.84626,-54.09684
2019-03-22 15:00:00+00:00,299.2463,0.6,14.56,47.84626,-54.09684
2019-03-22 15:10:00+00:00,282.1881,0.5,14.48,47.84626,-54.09684
2019-03-22 15:20:00+00:00,264.8198,0.6,14.64,47.84626,-54.09684
2019-03-22 15:30:00+00:00,257.6431,0.71,14.64,47.84626,-54.09684
2019-03-22 15:40:00+00:00,249.2514,0.79,14.72,47.84626,-54.09684
2019-03-22 15:50:00+00:00,234.8831,0.6,14.72,47.84626,-54.09684
2019-03-22 16:00:00+00:00,220.0415,0.6,14.8,47.84626,-54.09684
2019-03-22 16:10:00+00:00,214.9081,0.57,14.72,47.84626,-54.09684
2019-03-22 16:20:00+00:00,201.2448,0.6,14.88,47.84626,-54.09684
2019-03-22 16:30:00+00:00,183.5914,0.6,14.88,47.84626,-54.09684
2019-03-22 16:40:00+00:00,178.6299,0.6,14.88,47.84626,-54.09684
2019-03-22 16:50:00+00:00,178.1448,0.64,14.88,47.84626,-54.09684
2019-03-22 17:00:00+00:00,168.7048,0.67,14.72,47.84626,-54.09684
2019-03-22 17:10:00+00:00,156.0048,0.62,14.72,47.84626,-54.09684
2019-03-22 17:20:00+00:00,151.1365,0.6,14.72,47.84626,-54.09684
2019-03-22 17:30:00+00:00,146.8148,0.6,14.64,47.84626,-54.09684
2019-03-22 17:40:00+00:00,143.1782,0.6,14.72,47.84626,-54.09684
2019-03-22 17:50:00+00:00,142.3748,0.65,14.64,47.84626,-54.09684
2019-03-22 18:00:00+00:00,142.7798,0.67,14.56,47.84626,-54.09684
2019-03-22 18:10:00+00:00,141.6898,0.67,14.48,47.84626,-54.09684
2019-03-22 18:20:00+00:00,135.4182,0.68,14.56,47.84626,-54.09684
2019-03-22 18:30:00+00:00,129.1182,0.69,14.48,47.84626,-54.09684
2019-03-22 18:40:00+00:00,126.3349,0.7,14.48,47.84626,-54.09684
2019-03-22 18:50:00+00:00,129.5648,0.7,14.48,47.84626,-54.09684
2019-03-22 19:00:00+00:00,137.2449,0.7,14.32,47.84626,-54.09684
2019-03-22 19:10:00+00:00,142.3682,0.7,14.24,47.84626,-54.09684
2019-03-22 19:20:00+00:00,143.7798,0.7,14.32,47.84626,-54.09684
2019-03-22 19:30:00+00:00,149.0815,0.66,14.32,47.84626,-54.09684
2019-03-22 19:40:00+00:00,156.0848,0.6,14.32,47.84626,-54.09684
2019-03-22 19:50:00+00:00,162.9498,0.63,14.24,47.84626,-54.09684
2019-03-22 20:00:00+00:00,176.1548,0.66,14.16,47.84626,-54.09684
2019-03-22 20:10:00+00:00,183.6248,0.64,14.0,47.84626,-54.09684
2019-03-22 20:20:00+00:00,187.0165,0.62,14.0,47.84626,-54.09684
2019-03-22 20:30:00+00:00,192.3748,0.62,14.0,47.84626,-54.09684
2019-03-22 20:40:00+00:00,195.6598,0.66,14.0,47.84626,-54.09684
2019-03-22 20:50:00+00:00,202.7981,0.7,14.0,47.84626,-54.09684
2019-03-22 21:00:00+00:00,214.5114,0.7,13.84,47.84626,-54.09684
2019-03-22 21:10:00+00:00,222.7615,0.76,13.68,47.84626,-54.09684
2019-03-22 21:20:00+00:00,231.3447,0.8,13.68,47.84626,-54.09684
2019-03-22 21:30:00+00:00,238.2864,0.8,13.6,47.84626,-54.09684
2019-03-22 21:40:00+00:00,246.4181,0.8,13.6,47.84626,-54.09684
2019-03-22 21:50:00+00:00,249.3864,0.8,13.53,47.84626,-54.09684
2019-03-22 22:00:00+00:00,254.6148,0.7,13.44,47.84626,-54.09684
2019-03-22 22:10:00+00:00,261.2347,0.4,13.29,47.84626,-54.09684
2019-03-22 22:20:00+00:00,265.3881,0.4,13.29,47.84626,-54.09684
2019-03-22 22:30:00+00:00,265.748,0.4,13.21,47.84626,-54.09684
2019-03-22 22:40:00+00:00,280.5897,0.4,13.21,47.84626,-54.09684
2019-03-22 22:50:00+00:00,298.368,0.2,13.21,47.84626,-54.09684
2019-03-22 23:00:00+00:00,312.4714,0.19,13.13,47.84626,-54.09684
2019-03-22 23:10:00+00:00,322.2546,0.29,12.97,47.84626,-54.09684
2019-03-22 23:20:00+00:00,334.603,0.3,13.05,47.84626,-54.09684
2019-03-22 23:30:00+00:00,337.8014,0.28,12.97,47.84626,-54.09684
2019-03-22 23:40:00+00:00,344.778,0.25,13.05,47.84626,-54.09684
2019-03-22 23:50:00+00:00,357.598,0.22,13.05,47.84626,-54.09684
